Tracking 20041 objects as of 22-Nov-2019
Live streaming from Space Station
objects crossing your sky now

ATLAS 5 CENTAUR R/B

Track ATLAS 5 CENTAUR R/B now!


NORAD ID: 39505
Int'l Code: 2014-004B
Perigee: 4,691.7 km
Apogee: 34,660.1 km
Inclination: 25.8 °
Period: 697.3 minutes
Semi major axis: 26046 km
RCS: Unknown
Launch date: January 23, 2014
Source: United States (US)
Launch site: AIR FORCE EASTERN TEST RANGE (AFETR)

Note: This is a ROCKET BODY
aabbcc
Your satellite tracking list
Your tracking list is empty




NASA's NSSDC Master Catalog

Two Line Element Set (TLE):
1 39505U 14004B   19325.19749048 -.00000100 +00000-0 +00000-0 0  9995
2 39505 025.7665 019.9576 5752770 005.1951 358.9905 02.06523117043964
Source of the keplerian elements: AFSPC